This is the latest recevied weather packets stored in our database for station/object KF0KFL-13. If no packets are shown the sender has not sent any weather packets the latest 10 day(s).
| Time | Temp. | Humidity | Pressure | Rain* | Wind** | Luminosity | Snow |
|---|---|---|---|---|---|---|---|
| 1788138818 | 81° F | 75% | 756.7 mmHg | 0 in | 0 mph | 0 W/m² | - |
| 1788137618 | 81° F | 79% | 756.2 mmHg | 0 in | 0 mph | 2 W/m² | - |
| 1788136388 | 81° F | 82% | 756.3 mmHg | 0 in | 0 mph | 8 W/m² | - |
| 1788135189 | 82° F | 81% | 756.2 mmHg | 0 in | 0 mph | 18 W/m² | - |
| 1788133958 | 83° F | 79% | 756.3 mmHg | 0 in | 0 mph | 32 W/m² | - |
| 1788132728 | 84° F | 77% | 756.1 mmHg | 0 in | 0 mph | 78 W/m² | - |
| 1788131498 | 85° F | 75% | 756.4 mmHg | 0 in | 0 mph | 129 W/m² | - |
| 1788130268 | 85° F | 75% | 756.3 mmHg | 0 in | 0 mph | 131 W/m² | - |
| 1788129038 | 85° F | 73% | 756.3 mmHg | 0 in | 0 mph | 180 W/m² | - |
| 1788127808 | 86° F | 72% | 756.2 mmHg | 0 in | 0 mph | 223 W/m² | - |
| 1788126578 | 86° F | 72% | 756.2 mmHg | 0 in | 0 mph | 116 W/m² | - |
| 1788125348 | 84° F | 76% | 756.5 mmHg | 0 in | 0 mph | 394 W/m² | - |
| 1788124118 | 85° F | 73% | 756.5 mmHg | 0 in | 0 mph | 145 W/m² | - |
| 1788122888 | 83° F | 75% | 756.7 mmHg | 0 in | 0 mph | 443 W/m² | - |
| 1788121658 | 84° F | 74% | 756.9 mmHg | 0 in | 0 mph | 269 W/m² | - |
| 1788120428 | 84° F | 74% | 756.7 mmHg | 0 in | 0 mph | 591 W/m² | - |
| 1788119198 | 83° F | 76% | 756.7 mmHg | 0 in | 0 mph | 535 W/m² | - |
| 1788117968 | 81° F | 78% | 756.7 mmHg | 0 in | 0 mph | 576 W/m² | - |
| 1788116738 | 80° F | 79% | 757.4 mmHg | 0 in | 0 mph | 239 W/m² | - |
| 1788115538 | 80° F | 81% | 757.2 mmHg | 0 in | 0 mph | 422 W/m² | - |
| 1788114308 | 80° F | 82% | 757.3 mmHg | 0 in | 0 mph | 209 W/m² | - |
| 1788113078 | 78° F | 85% | 757.6 mmHg | 0 in | 0 mph | 171 W/m² | - |
| 1788111848 | 78° F | 85% | 757.5 mmHg | 0 in | 0 mph | 140 W/m² | - |
| 1788110618 | 77° F | 85% | 757.6 mmHg | 0 in | 0 mph | 112 W/m² | - |
| 1788109457 | 77° F | 86% | 757.6 mmHg | 0 in | 0 mph | 142 W/m² | - |
* Rain latest hour (hover to see other rain measurements)
** Current wind speed in m/s (hover to see current wind gust speed)